DW0000 Weather Reports


Display with metric or nautical units.
time (UTC)temp
F
wind
direction
speed
MPH
gust
MPH
rain 1hr
in
rain 24hr
in
rain mn
in
humidity
%
barometer
mb
20211203213913 68 55 8.0 18.0 0.00 0.00 0.00 79 1021.7
20211203213412 68 208 2.0 12.0 0.00 0.00 0.00 80 1021.7
20211203212411 67 33 6.0 16.0 0.00 0.00 0.00 79 1021.8
20211203211913 67 105 6.0 14.0 0.00 0.00 0.00 79 1021.8
20211203211412 67 61 6.0 15.0 0.00 0.00 0.00 79 1021.8
20211203210412 67 39 5.0 17.0 0.00 0.00 0.00 79 1021.9
20211203205913 67 64 6.0 13.0 0.00 0.00 0.00 79 1021.9
20211203204917 67 54 6.0 21.0 0.00 0.00 0.00 79 1022.1
20211203204415 67 38 7.0 14.0 0.00 0.00 0.00 80 1022.2
20211203203412 67 56 8.0 15.0 0.00 0.00 0.00 81 1022.1
20211203202413 66 126 5.0 13.0 0.00 0.00 0.00 84 1022.0
20211203201913 66 88 4.0 10.0 0.00 0.00 0.00 83 1021.9
20211203201412 66 124 5.0 15.0 0.00 0.00 0.00 83 1021.9
20211203200913 66 139 3.0 9.0 0.00 0.00 0.00 84 1021.9
20211203200412 66 114 4.0 10.0 0.00 0.00 0.00 84 1021.9
20211203195914 66 89 5.0 12.0 0.00 0.00 0.00 85 1021.9
20211203195412 66 112 6.0 13.0 0.00 0.00 0.00 85 1021.9
20211203194913 66 98 7.0 12.0 0.00 0.00 0.00 85 1021.8
20211203194412 66 95 7.0 13.0 0.00 0.00 0.00 85 1021.8
20211203193915 66 98 7.0 13.0 0.00 0.00 0.00 84 1021.9
20211203193412 65 106 7.0 12.0 0.00 0.00 0.00 84 1021.8
20211203192913 65 102 4.0 12.0 0.00 0.00 0.00 84 1021.8
20211203192411 65 103 5.0 12.0 0.00 0.00 0.00 84 1021.7
20211203191412 66 100 6.0 12.0 0.00 0.00 0.00 84 1021.7
20211203190913 65 85 4.0 12.0 0.00 0.00 0.00 83 1021.6
20211203190412 65 99 5.0 12.0 0.00 0.00 0.00 83 1021.6
20211203185913 65 107 6.0 12.0 0.00 0.00 0.00 83 1021.6
20211203185412 65 106 6.0 13.0 0.00 0.00 0.00 83 1021.5
20211203184913 65 98 7.0 14.0 0.00 0.00 0.00 83 1021.5
20211203184412 65 116 6.0 12.0 0.00 0.00 0.00 83 1021.5
20211203182413 65 109 7.0 15.0 0.00 0.00 0.00 83 1021.3
20211203181913 65 104 6.0 12.0 0.00 0.00 0.00 84 1021.3
20211203181412 65 104 8.0 13.0 0.00 0.00 0.00 84 1021.3
20211203180913 65 100 6.0 13.0 0.00 0.00 0.00 83 1021.4
20211203180411 65 99 4.0 10.0 0.00 0.00 0.00 83 1021.4
20211203175913 65 84 3.0 12.0 0.00 0.00 0.00 83 1021.4
20211203175412 65 85 4.0 12.0 0.00 0.00 0.00 84 1021.4
20211203174913 64 201 2.0 9.0 0.00 0.00 0.00 84 1021.3
20211203174412 64 124 4.0 12.0 0.00 0.00 0.00 84 1021.2
20211203173913 64 108 5.0 12.0 0.00 0.00 0.00 84 1021.2
20211203173412 64 101 4.0 9.0 0.00 0.00 0.00 84 1021.2
20211203172913 64 90 4.0 9.0 0.00 0.00 0.00 85 1021.3
20211203172412 64 105 3.0 12.0 0.00 0.00 0.00 85 1021.2
20211203170912 64 76 5.0 10.0 0.00 0.00 0.00 85 1021.1
20211203170412 64 129 5.0 12.0 0.00 0.00 0.00 84 1021.1
20211203165913 64 106 5.0 12.0 0.00 0.00 0.00 84 1021.1
20211203165412 64 113 6.0 12.0 0.00 0.00 0.00 84 1021.1
20211203164912 64 111 7.0 10.0 0.00 0.00 0.00 84 1021.1
20211203162412 64 109 5.0 12.0 0.00 0.00 0.00 85 1021.0
20211203161913 64 108 4.0 12.0 0.00 0.00 0.00 85 1021.1
20211203161412 64 93 5.0 10.0 0.00 0.00 0.00 85 1021.0
20211203160912 64 118 6.0 12.0 0.00 0.00 0.00 85 1021.0
20211203153912 64 112 7.0 12.0 0.00 0.00 0.00 84 1021.3
20211203153412 64 132 4.0 12.0 0.00 0.00 0.00 84 1021.3
20211203152912 64 142 5.0 8.0 0.00 0.00 0.00 83 1021.3
20211203152411 64 100 2.0 10.0 0.00 0.00 0.00 83 1021.4
20211203151912 64 127 4.0 9.0 0.00 0.00 0.00 83 1021.4
20211203151412 64 348 5.0 10.0 0.00 0.00 0.00 83 1021.4
20211203150911 65 89 3.0 15.0 0.00 0.00 0.00 83 1021.5
20211203150412 65 69 3.0 9.0 0.00 0.00 0.00 83 1021.5
20211203145912 65 103 2.0 5.0 0.00 0.00 0.00 82 1021.5
20211203145412 65 58 3.0 10.0 0.00 0.00 0.00 82 1021.4
20211203144912 65 93 6.0 12.0 0.00 0.00 0.00 82 1021.5
20211203144411 65 132 3.0 12.0 0.00 0.00 0.00 82 1021.6
20211203143912 65 97 5.0 10.0 0.00 0.00 0.00 83 1021.6
20211203143411 65 99 5.0 9.0 0.00 0.00 0.00 82 1021.5
20211203142913 65 102 4.0 12.0 0.00 0.00 0.00 82 1021.7
20211203142411 65 101 4.0 9.0 0.00 0.00 0.00 82 1021.6
20211203141412 65 104 4.0 13.0 0.00 0.00 0.00 81 1021.7
20211203140912 65 122 5.0 12.0 0.00 0.00 0.00 81 1021.7
20211203140412 65 118 6.0 13.0 0.00 0.00 0.00 81 1021.8
20211203135912 65 121 5.0 12.0 0.00 0.00 0.00 81 1021.8
20211203135412 65 117 3.0 9.0 0.00 0.00 0.00 80 1021.9
20211203134912 65 98 4.0 9.0 0.00 0.00 0.00 81 1021.8
20211203134412 65 126 5.0 12.0 0.00 0.00 0.00 81 1021.9
20211203133912 65 82 5.0 10.0 0.00 0.00 0.00 81 1022.0
20211203133412 65 111 5.0 10.0 0.00 0.00 0.00 81 1022.0
20211203132913 65 86 4.0 12.0 0.00 0.00 0.00 81 1022.1
20211203132412 65 106 6.0 12.0 0.00 0.00 0.00 82 1022.1
20211203131912 65 107 4.0 12.0 0.00 0.00 0.00 82 1022.1
20211203131411 65 102 3.0 12.0 0.00 0.00 0.00 83 1022.2
20211203130912 65 62 4.0 10.0 0.00 0.00 0.00 83 1022.3
20211203130412 65 88 3.0 7.0 0.00 0.00 0.00 83 1022.3
20211203125912 65 97 5.0 12.0 0.00 0.00 0.00 83 1022.3
20211203125411 65 112 4.0 8.0 0.00 0.00 0.00 83 1022.3
20211203124912 65 132 4.0 10.0 0.00 0.00 0.00 83 1022.4
20211203124411 65 106 5.0 15.0 0.00 0.00 0.00 83 1022.4
20211203122913 65 99 5.0 12.0 0.00 0.00 0.00 81 1022.5
20211203122411 65 94 3.0 9.0 0.00 0.00 0.00 81 1022.7
20211203121913 65 82 6.0 13.0 0.00 0.00 0.00 81 1022.7
20211203120411 65 106 4.0 12.0 0.00 0.00 0.00 82 1022.7
20211203115912 65 94 4.0 9.0 0.00 0.00 0.00 82 1022.8
20211203114411 65 101 4.0 10.0 0.00 0.00 0.00 81 1022.9
20211203113912 65 92 5.0 13.0 0.00 0.00 0.00 83 1023.0
20211203113411 65 103 5.0 12.0 0.00 0.00 0.00 83 1022.9
20211203112912 65 118 5.0 12.0 0.00 0.00 0.00 84 1023.0
20211203112411 65 106 7.0 12.0 0.00 0.00 0.00 85 1023.0
20211203111411 65 99 5.0 12.0 0.00 0.00 0.00 85 1022.9
20211203110912 65 94 8.0 14.0 0.00 0.00 0.00 86 1022.9
20211203110412 65 119 5.0 10.0 0.00 0.00 0.00 86 1022.9
20211203105912 66 85 6.0 10.0 0.00 0.00 0.00 86 1023.0
20211203105412 66 110 6.0 10.0 0.00 0.00 0.00 85 1023.0
20211203103411 66 95 6.0 10.0 0.00 0.00 0.00 84 1023.1
20211203102912 66 112 3.0 10.0 0.00 0.00 0.00 84 1023.2
20211203100912 66 80 6.0 16.0 0.00 0.00 0.00 85 1023.2
20211203100411 66 100 5.0 12.0 0.00 0.00 0.00 86 1023.2
20211203095912 66 98 3.0 9.0 0.00 0.00 0.00 86 1023.2
20211203095411 66 138 4.0 13.0 0.00 0.00 0.00 86 1023.1
20211203094912 66 99 5.0 12.0 0.00 0.00 0.00 86 1023.0
20211203094412 66 100 7.0 16.0 0.00 0.00 0.00 86 1023.0
20211203093912 66 96 6.0 13.0 0.00 0.00 0.00 87 1023.0
20211203093412 66 103 5.0 13.0 0.00 0.00 0.00 87 1023.0
20211203092913 66 104 4.0 10.0 0.00 0.00 0.00 87 1023.0
20211203092411 67 105 5.0 12.0 0.00 0.00 0.00 86 1023.0
20211203091912 67 122 3.0 10.0 0.00 0.00 0.00 86 1023.0
20211203091412 67 81 4.0 12.0 0.00 0.00 0.00 86 1022.9
20211203090912 67 109 6.0 12.0 0.00 0.00 0.00 86 1022.9
20211203090412 67 103 7.0 12.0 0.00 0.00 0.00 86 1022.8
20211203085912 67 105 4.0 9.0 0.00 0.00 0.00 84 1022.9
20211203085411 67 79 3.0 7.0 0.00 0.00 0.00 83 1022.9
20211203084912 67 84 3.0 7.0 0.00 0.00 0.00 83 1022.9
20211203083411 68 107 2.0 5.0 0.00 0.00 0.00 82 1022.7
20211203082912 68 73 3.0 9.0 0.00 0.00 0.00 81 1022.7
20211203082411 68 112 5.0 12.0 0.00 0.00 0.00 81 1022.6
20211203081911 68 87 3.0 12.0 0.00 0.00 0.00 80 1022.5
20211203080912 68 37 9.0 14.0 0.00 0.00 0.00 79 1022.4
20211203080411 68 57 5.0 12.0 0.00 0.00 0.00 79 1022.4
20211203075410 68 50 4.0 9.0 0.00 0.00 0.00 77 1022.3
20211203074911 68 75 3.0 9.0 0.00 0.00 0.00 77 1022.3
20211203073911 69 135 2.0 8.0 0.00 0.00 0.00 76 1022.4
20211203072912 69 46 3.0 8.0 0.00 0.00 0.00 75 1022.3
20211203072410 69 48 5.0 8.0 0.00 0.00 0.00 74 1022.3
20211203071912 69 77 3.0 10.0 0.00 0.00 0.00 74 1022.3
20211203070912 69 77 6.0 12.0 0.00 0.00 0.00 73 1022.3
20211203070411 69 28 5.0 9.0 0.00 0.00 0.00 72 1022.3
20211203065912 69 49 3.0 10.0 0.00 0.00 0.00 72 1022.2
20211203065411 70 64 3.0 12.0 0.00 0.00 0.00 71 1022.2
20211203063411 70 41 2.0 7.0 0.00 0.00 0.00 68 1022.1
20211203062912 71 91 2.0 7.0 0.00 0.00 0.00 67 1022.0
20211203062410 71 65 3.0 8.0 0.00 0.00 0.00 66 1021.9
20211203061911 71 118 2.0 8.0 0.00 0.00 0.00 66 1021.8
20211203060912 71 108 2.0 8.0 0.00 0.00 0.00 67 1021.8
20211203060410 71 68 3.0 9.0 0.00 0.00 0.00 67 1021.8
20211203055410 71 99 2.0 6.0 0.00 0.00 0.00 67 1021.7
20211203054912 71 78 5.0 10.0 0.00 0.00 0.00 67 1021.6
20211203054410 71 74 6.0 15.0 0.00 0.00 0.00 67 1021.6
20211203053911 71 64 7.0 12.0 0.00 0.00 0.00 65 1021.6
20211203052912 72 20 9.0 15.0 0.00 0.00 0.00 64 1021.6
20211203051411 73 16 3.0 13.0 0.00 0.00 0.00 65 1021.5
20211203050410 73 32 6.0 10.0 0.00 0.00 0.00 65 1021.6
20211203045414 73 23 11.0 17.0 0.00 0.00 0.00 65 1021.6
20211203044911 73 19 4.0 13.0 0.00 0.00 0.00 64 1021.6
20211203044411 73 18 12.0 20.0 0.00 0.00 0.00 64 1021.6
20211203043912 73 57 6.0 12.0 0.00 0.00 0.00 64 1021.6
20211203043411 73 42 5.0 13.0 0.00 0.00 0.00 63 1021.6
20211203042912 73 61 10.0 16.0 0.00 0.00 0.00 64 1021.6
20211203042411 74 39 10.0 18.0 0.00 0.00 0.00 64 1021.7
20211203041912 75 30 14.0 20.0 0.00 0.00 0.00 63 1021.7
20211203041410 75 38 6.0 15.0 0.00 0.00 0.00 62 1021.6
20211203040911 75 25 13.0 20.0 0.00 0.00 0.00 62 1021.8
20211203040411 75 50 5.0 17.0 0.00 0.00 0.00 64 1021.7
20211203035911 74 27 11.0 17.0 0.00 0.00 0.00 63 1021.9
20211203034411 75 21 10.0 18.0 0.00 0.00 0.00 65 1021.8
20211203033911 75 50 9.0 14.0 0.00 0.00 0.00 65 1021.9
20211203033410 75 15 11.0 18.0 0.00 0.00 0.00 65 1022.0
20211203032911 76 11 6.0 15.0 0.00 0.00 0.00 64 1021.9
20211203032410 76 47 9.0 18.0 0.00 0.00 0.00 63 1021.8
20211203031411 76 42 6.0 12.0 0.00 0.00 0.00 60 1021.9
20211203025411 76 28 12.0 17.0 0.00 0.00 0.00 61 1022.0
20211203024911 76 31 5.0 12.0 0.00 0.00 0.00 61 1022.1
20211203024410 76 32 12.0 18.0 0.00 0.00 0.00 62 1022.1
20211203023911 76 43 9.0 14.0 0.00 0.00 0.00 62 1022.1
20211203022911 77 76 6.0 12.0 0.00 0.00 0.00 61 1022.2
20211203021410 76 28 10.0 17.0 0.00 0.00 0.00 58 1022.3
20211203020410 77 48 6.0 12.0 0.00 0.00 0.00 58 1022.4
20211203015910 76 93 8.0 18.0 0.00 0.00 0.00 61 1022.4
20211203015412 76 60 6.0 13.0 0.00 0.00 0.00 59 1022.4
20211203014411 76 68 5.0 17.0 0.00 0.00 0.00 59 1022.5
20211203012912 76 116 6.0 14.0 0.00 0.00 0.00 58 1022.6
20211203012410 76 93 7.0 14.0 0.00 0.00 0.00 58 1022.6
20211203011911 76 98 7.0 15.0 0.00 0.00 0.00 58 1022.7
20211203010911 75 42 10.0 16.0 0.00 0.00 0.00 58 1022.8
20211203010411 75 104 4.0 13.0 0.00 0.00 0.00 59 1022.8
20211203005910 75 53 9.0 14.0 0.00 0.00 0.00 60 1022.9
20211203003911 76 47 7.0 13.0 0.00 0.00 0.00 60 1023.2
20211203003410 76 60 6.0 13.0 0.00 0.00 0.00 58 1023.3
20211203002912 76 96 4.0 14.0 0.00 0.00 0.00 60 1023.3
20211203002410 75 22 7.0 14.0 0.00 0.00 0.00 60 1023.3
20211203001410 75 42 5.0 12.0 0.00 0.00 0.00 58 1023.3
20211202235912 75 35 4.0 14.0 0.00 0.00 0.00 61 1023.3
20211202235410 74 71 5.0 14.0 0.00 0.00 0.00 61 1023.4
20211202234410 74 84 3.0 10.0 0.00 0.00 0.00 61 1023.5
20211202233910 74 47 4.0 12.0 0.00 0.00 0.00 61 1023.5
20211202233410 75 68 9.0 15.0 0.00 0.00 0.00 61 1023.5
20211202232918 74 37 7.0 16.0 0.00 0.00 0.00 60 1023.5
20211202231912 74 105 7.0 15.0 0.00 0.00 0.00 62 1023.6
20211202231411 74 81 5.0 14.0 0.00 0.00 0.00 63 1023.6
20211202230911 74 71 6.0 13.0 0.00 0.00 0.00 61 1023.6
20211202230410 74 95 7.0 12.0 0.00 0.00 0.00 60 1023.5
20211202224410 73 88 6.0 12.0 0.00 0.00 0.00 63 1023.6
20211202223911 73 122 3.0 14.0 0.00 0.00 0.00 63 1023.6
20211202223411 73 96 6.0 17.0 0.00 0.00 0.00 64 1023.7
20211202222911 74 72 3.0 13.0 0.00 0.01 0.00 64 1023.7
20211202222410 73 95 6.0 10.0 0.00 0.01 0.00 64 1023.8
20211202221911 73 118 5.0 13.0 0.00 0.01 0.00 65 1023.8
20211202220911 72 117 5.0 13.0 0.00 0.01 0.00 66 1024.0
20211202220410 72 88 6.0 12.0 0.00 0.01 0.00 67 1024.0
20211202215912 72 32 7.0 15.0 0.00 0.01 0.00 68 1024.0
20211202215410 72 87 3.0 12.0 0.00 0.01 0.00 70 1024.0